This is the latest recevied weather packets stored in our database for station/object 9D9-WX. If no packets are shown the sender has not sent any weather packets the latest 10 day(s).
| Time | Temp. | Humidity | Pressure | Rain* | Wind** | Luminosity | Snow |
|---|---|---|---|---|---|---|---|
| 1777700710 | 0.56° C | 74% | 988.5 hPa | 0 mm | - | - | - |
| 1777699827 | 0.56° C | 77% | 988.9 hPa | 0 mm | - | - | - |
| 1777698909 | 0.56° C | 77% | 988.9 hPa | 0 mm | - | - | - |
| 1777698031 | 0.56° C | 77% | 988.9 hPa | 0 mm | - | - | - |
| 1777697110 | 1.11° C | 70% | 988.5 hPa | 0 mm | - | - | - |
| 1777696226 | 1.11° C | 71% | 988.6 hPa | 0 mm | - | - | - |
| 1777695309 | 1.11° C | 71% | 988.6 hPa | 0 mm | - | - | - |
| 1777694429 | 1.11° C | 71% | 988.6 hPa | 0 mm | - | - | - |
| 1777693509 | 1.67° C | 65% | 988.1 hPa | 0 mm | - | - | - |
| 1777692627 | 1.67° C | 70% | 987.7 hPa | 0 mm | - | - | - |
| 1777691709 | 1.67° C | 70% | 987.7 hPa | 0 mm | - | - | - |
| 1777690830 | 1.67° C | 70% | 987.7 hPa | 0 mm | - | - | - |
| 1777689909 | 2.22° C | 64% | 987.1 hPa | 0 mm | - | - | - |
| 1777689026 | 2.22° C | 66% | 988.1 hPa | 0 mm | - | - | - |
| 1777688109 | 2.78° C | 66% | 988.1 hPa | 0 mm | - | - | - |
| 1777687227 | 2.78° C | 66% | 988.1 hPa | 0 mm | - | - | - |
| 1777686309 | 3.33° C | 64% | 988.2 hPa | 0 mm | - | - | - |
| 1777685425 | 3.33° C | 64% | 988.2 hPa | 0 mm | - | - | - |
| 1777684509 | 2.78° C | 64% | 988.2 hPa | 0 mm | - | - | - |
| 1777683624 | 3.33° C | 64% | 988.2 hPa | 0 mm | - | - | - |
| 1777682709 | 3.33° C | 57% | 988.7 hPa | 0 mm | - | - | - |
| 1777681826 | 3.89° C | 60% | 989.1 hPa | 0 mm | - | - | - |
| 1777680909 | 4.44° C | 60% | 989.1 hPa | 0 mm | - | - | - |
| 1777680031 | 5° C | 60% | 989.1 hPa | 0 mm | - | - | - |
| 1777679109 | 5.56° C | 59% | 987.4 hPa | 0 mm | - | - | - |
* Rain latest hour (hover to see other rain measurements)
** Current wind speed in m/s (hover to see current wind gust speed)